TimeCST,TemperatureF,Dew PointF,Humidity,Sea Level PressureIn,VisibilityMPH,Wind Direction,Wind SpeedMPH,Gust SpeedMPH,PrecipitationIn,Events,Conditions,WindDirDegrees,DateUTC
6:00 AM,71,65,76,29.84,12,NE,5.8,,,,Clear,40,2013-03-21 12:00:00
6:00 AM,71.6,64.4,78,29.82,-9999.0,NE,5.8,-,N/A,,Clear,40,2013-03-21 12:00:00
7:00 AM,73.4,66.2,78,29.85,6.2,NNE,4.6,-,N/A,,Mostly Cloudy,30,2013-03-21 13:00:00
8:00 AM,80.6,66.2,61,29.87,-9999.0,NE,5.8,-,N/A,,Clear,40,2013-03-21 14:00:00
9:00 AM,85,71,55,29.88,12,SSE,6.9,,,,Haze,150,2013-03-21 15:00:00
9:00 AM,86.0,71.6,62,29.86,-9999.0,SSE,6.9,-,N/A,,Clear,150,2013-03-21 15:00:00
10:00 AM,89.6,69.8,52,29.85,-9999.0,SE,5.8,-,N/A,,Clear,140,2013-03-21 16:00:00
11:00 AM,93.2,64.4,38,29.82,6.2,SW,5.8,-,N/A,,Mostly Cloudy,230,2013-03-21 17:00:00
12:00 PM,93,68,34,29.79,12,West,10.4,,,,Overcast,260,2013-03-21 18:00:00
12:00 PM,93.2,68.0,44,29.78,6.2,West,10.4,-,N/A,,Mostly Cloudy,260,2013-03-21 18:00:00
1:00 PM,93.2,68.0,44,29.76,6.2,West,15.0,-,N/A,,Mostly Cloudy,280,2013-03-21 19:00:00
2:00 PM,91.4,68.0,46,29.74,6.2,West,16.1,-,N/A,,Mostly Cloudy,270,2013-03-21 20:00:00
3:00 PM,90,67,38,29.75,12,West,16.1,,,,Overcast,260,2013-03-21 21:00:00
3:00 PM,89.6,68.0,49,29.74,6.2,West,16.1,-,N/A,,Mostly Cloudy,260,2013-03-21 21:00:00
4:00 PM,87.8,68.0,52,29.73,6.2,West,16.1,-,N/A,,Mostly Cloudy,270,2013-03-21 22:00:00
5:00 PM,87.8,68.0,52,29.74,6.2,WSW,12.7,-,N/A,,Mostly Cloudy,250,2013-03-21 23:00:00
6:00 PM,85,68,47,29.80,12,West,3.5,,,,Overcast,280,2013-03-22 00:00:00
6:00 PM,86.0,68.0,55,29.78,6.2,West,3.5,-,N/A,,Mostly Cloudy,280,2013-03-22 00:00:00
7:00 PM,82.4,71.6,70,29.80,6.2,East,3.5,-,N/A,,Mostly Cloudy,90,2013-03-22 01:00:00
8:00 PM,80.6,71.6,74,29.83,6.2,North,3.5,-,N/A,,Mostly Cloudy,360,2013-03-22 02:00:00
9:00 PM,80.6,71.6,74,29.86,6.2,NE,3.5,-,N/A,,Mostly Cloudy,50,2013-03-22 03:00:00
10:00 PM,78.8,71.6,78,29.88,6.2,NNE,3.5,-,N/A,,Mostly Cloudy,30,2013-03-22 04:00:00